User: anonymous   Login
Location: Unspecified
(0.0000°N, 0.0000°E)
Time: 06:51:04
(UTC+00:00)
Language:

TBA - TO BE ASSIGNED - Orbit

View from above orbital plane
View from above orbital plane
View from above satellite
View from above satellite

Ground track
Ground track

The orbit is defined by the following mean orbital elements,

1 67688U          26144.99828978 +.00000000 +00000-0 +68185-3 0 00006
2 67688  51.6294  49.9725 0009763  98.1989 262.0112 15.60112167    03
Epoch (UTC): 24 May 2026 23:57:32
Eccentricity: 0.0009763
inclination: 51.6294°
perigee height: 381 km
apogee height: 394 km
right ascension of ascending node: 49.9725°
argument of perigee: 98.1989°
revolutions per day: 15.60112167
mean anomaly at epoch: 262.0112°

The dashed part of the orbit path shows where the satellite is in the earth's shadow,  

DLR